Regional Weather Roundup
Issued by NWS Sioux Falls, SD

Home | Current Version | Previous Version | Text Only | Print | Product List | Glossary On
Versions: 1 2 3 4 5 6 7 8 9 10 11 12 13 14 15 16 17 18 19 20 21 22 23 24 25 26 27 28 29 30 31 32 33 34 35 36 37 38 39 40 41 42 43 44 45 46 47 48 49 50
000
ASUS43 KFSD 200610
RWRFSD

WEATHER ROUNDUP FOR SE SOUTH DAKOTA/SW MINNESOTA/NW IOWA
NATIONAL WEATHER SERVICE SIOUX FALLS SD
100 AM CDT SAT SEP 20 2014

NOTE: "FAIR" INDICATES FEW OR NO CLOUDS BELOW 12,000 FEET WITH NO
SIGNIFICANT WEATHER AND OR OBSTRUCTIONS TO VISIBILITY.


SDZ038>040-050-052>070-200700-
SOUTHEAST SOUTH DAKOTA

CITY           SKY/WX    TMP DP  RH WIND       PRES   REMARKS
CHAMBERLAIN    MOCLDY    69  53  56 NW7       29.83R
6HR MIN TEMP:  69; 6HR MAX TEMP:  81;

HURON          CLEAR     62  53  72 NW6       29.76R
6HR MIN TEMP:  61; 6HR MAX TEMP:  81;

MADISON        FAIR      64  59  82 NW7       29.78R
MITCHELL       PTCLDY    66  57  72 W7        29.79R
6HR MIN TEMP:  65; 6HR MAX TEMP:  82; 6HR PCP: TRACE;

SIOUX FALLS    MOCLDY    68  61  78 CALM      29.77R
6HR MIN TEMP:  68; 6HR MAX TEMP:  83;

WINNER         FAIR      65  59  81 W6        29.87R
YANKTON        PTCLDY    66  63  88 CALM      29.77R
$$

MNZ071-072-080-081-089-090-097-098-200700-
SOUTHWEST MINNESOTA

CITY           SKY/WX    TMP DP  RH WIND       PRES   REMARKS
FAIRMONT       CLOUDY    68  57  68 SW8       29.75R
JACKSON        CLOUDY    68  63  83 SW8       29.75F
LUVERNE        MOCLDY    66  63  88 S5        29.77R
MARSHALL       PTCLDY    68  61  77 W12       29.73R
6HR MIN TEMP:  66; 6HR MAX TEMP:  75;

MONTEVIDEO     PTCLDY    66  63  88 W5        29.71R
PIPESTONE      PTCLDY    70  61  73 NW5       29.77R
REDWOOD FALLS  MOCLDY    73  64  73 W10       29.70R
TRACY          MOCLDY    69  65  87 CALM      29.73S
WINDOM         CLOUDY    70  64  83 SW7       29.74F
WORTHINGTON    CLOUDY    70  63  78 SW7       29.77S
$$

IAZ001>003-012>014-020>022-031-032-NEZ013-014-SDZ071-200700-
NORTHWEST IOWA

CITY           SKY/WX    TMP DP  RH WIND       PRES   REMARKS
CHEROKEE       TSTM      66  65  97 S9        29.77F
DENISON        CLOUDY    72  70  94 S12       29.77S
ESTHERVILLE    CLOUDY    66  64  93 SW10      29.76R
LE MARS          N/A     66  64  94 SW5       29.78R
ORANGE CITY    CLOUDY    68  64  88 SW3       29.77R
SHELDON        CLOUDY    68  66  94 S5        29.77R
SIOUX CITY     TSTM      66  65  96 S12       29.78F
6HR MIN TEMP:  66; 6HR MAX TEMP:  84; 6HR PCP:  0.69;

SPENCER        CLOUDY    67  63  87 S9        29.77F
6HR MIN TEMP:  65; 6HR MAX TEMP:  77; 6HR PCP:  1.67;

$$

ABBREVIATIONS USED IN REMARKS
   TC - TEMPERATURE IN CELSIUS
  WCI - WIND CHILL INDEX
   HX - HEAT INDEX
  VSB - VISIBILITY



USA.gov is the U.S. government's official web portal to all federal, state and local government web resources and services.